Location: Home
(42.5358°N, 72.7383°W)
Time: 17:34:12
(UTC-05:00)

N. Korean satellite - Pass Details

Date: 25 October 2021
Orbit: 446 x 495 km, 97.3° (Epoch: 07 December)

Event Time Altitude Azimuth Distance (km) Brightness Sun altitude
Rises 05:49:31 0° 17° (NNE) 2,592 10.5 -16.6°
Reaches altitude 10° 05:51:40 10° 23° (NNE) 1,701 9.6 -16.2°
Maximum altitude 05:55:14 49° 99° (E) 643 7.6 -15.5°
Drops below altitude 10° 05:58:44 10° 175° (S) 1,668 9.4 -14.9°
Sets 06:00:49 0° 181° (S) 2,536 10.2 -14.5°
